Theta_e
305 305 305 304 304 304 302 301 300 300 300 300 298 296 294 293 293 290 287 287 286 286 286 286 285 285 284 284 284 284 284 283 282 283 283 283 283 283 283 283 283 282 282 282 282 281 281 281 281 281 281 281 281 280 280 280 280 280 281 281 281 281 283 282 281 280 282 284 283 283 284 284 284 285 284 284 285 286 287 286 287 287 287 287 287
304 302 303 303 303 301 299 299 298 298 297 296 294 293 291 290 287 287 287 285 286 286 286 284 284 284 284 284 283 283 283 283 282 283 283 283 283 282 282 283 283 282 282 282 281 281 281 281 280 281 281 280 280 280 280 280 280 280 280 280 280 280 281 281 280 280 279 282 282 283 283 283 282 284 283 283 284 285 285 286 286 286 286 286 286
301 301 301 300 298 297 297 296 295 295 294 292 291 290 288 287 287 287 286 285 284 285 285 284 284 284 283 283 283 283 283 282 282 283 283 283 283 282 282 282 283 282 281 281 281 281 281 280 279 281 280 280 279 280 280 280 279 279 280 280 279 280 280 280 280 279 279 280 282 281 282 283 282 282 283 284 284 285 284 284 285 286 286 286 286
298 299 298 296 295 294 294 293 293 292 292 290 289 287 286 286 286 286 285 285 284 283 283 284 283 283 283 283 283 283 282 282 282 282 282 282 282 282 282 282 282 281 281 281 281 281 281 280 280 279 280 279 279 279 279 279 279 279 279 280 279 280 280 280 280 280 280 280 281 281 282 281 282 283 284 285 284 284 284 284 285 284 285 285 284
295 295 294 293 292 292 291 291 292 291 290 289 287 286 286 285 285 285 285 284 283 283 282 283 283 283 283 283 282 282 282 282 282 282 282 281 282 282 281 281 281 281 281 281 282 281 280 280 280 280 280 279 279 279 279 279 279 279 279 279 279 280 280 280 280 281 281 280 280 281 282 282 283 283 283 283 283 283 283 283 283 283 283 284 284
293 293 293 292 291 290 290 291 291 290 288 287 286 286 285 285 285 284 285 284 283 283 282 282 283 282 282 282 282 282 281 282 282 282 281 281 281 281 281 281 281 281 281 281 281 280 280 280 280 280 279 278 279 279 279 279 279 279 279 279 279 280 279 280 281 281 281 281 281 280 282 281 281 282 283 282 281 280 281 282 282 282 282 282 283
291 292 292 292 291 290 290 290 290 289 287 286 285 285 285 284 284 284 283 283 283 282 282 282 281 282 282 282 282 282 282 281 281 281 281 282 281 281 281 281 281 280 281 280 280 280 280 280 279 279 278 278 279 278 279 279 279 279 279 279 280 280 280 281 281 281 281 281 281 282 281 281 281 280 281 282 281 281 280 279 279 282 282 282 282
291 291 291 291 291 290 289 289 288 286 286 286 285 285 284 284 283 282 282 282 282 282 282 281 281 281 281 281 281 281 281 281 281 281 281 281 281 281 281 280 280 280 280 280 279 278 279 279 279 278 278 278 278 279 279 279 279 279 279 279 280 281 281 281 281 281 280 280 280 280 280 280 280 280 281 280 279 279 280 280 278 280 281 283 283
290 291 291 291 290 289 288 286 286 285 285 285 284 284 283 283 282 282 282 282 282 281 281 281 281 280 280 281 280 281 281 282 282 281 282 281 281 281 281 280 280 280 279 279 278 278 278 278 278 277 279 282 283 283 283 283 280 279 280 281 282 281 281 281 281 280 280 280 279 280 279 279 279 278 278 278 278 278 280 281 280 281 282 282 283
290 290 290 290 288 287 286 285 285 285 285 284 284 283 283 282 282 281 281 281 281 281 280 280 280 280 280 279 279 280 281 282 285 288 286 282 281 281 281 280 280 279 279 278 278 278 278 277 278 281 281 281 282 282 283 283 283 282 281 281 281 280 280 280 279 279 279 278 278 279 278 277 278 278 278 280 281 281 281 281 280 281 282 281 283
289 289 289 288 286 285 285 285 284 284 284 284 283 283 282 282 281 281 281 280 280 280 280 279 279 279 279 279 279 280 282 283 288 288 288 287 282 280 280 279 279 279 278 277 277 277 277 277 277 278 279 280 279 281 281 282 282 282 283 283 283 282 280 279 279 280 279 278 279 279 278 278 279 279 279 280 281 281 281 281 281 281 280 279 277
287 287 286 285 285 285 285 284 284 284 283 283 283 282 282 281 281 280 280 279 279 279 279 279 279 278 278 278 278 279 281 287 288 288 288 287 283 280 279 279 278 278 277 277 277 276 276 276 277 278 277 278 278 277 279 280 282 282 283 283 284 284 284 282 280 279 279 278 278 278 279 278 279 280 280 280 280 281 281 281 281 280 279 279 279
287 286 285 285 285 285 284 284 284 283 283 282 282 281 281 281 280 280 280 279 278 278 278 278 278 278 278 277 277 278 280 286 287 287 287 286 284 281 278 278 278 278 277 277 276 276 276 276 276 277 277 279 277 277 277 278 281 283 283 283 283 283 283 284 284 282 281 279 279 278 279 279 278 280 281 281 282 280 281 280 281 281 280 279 280
286 285 285 285 285 284 284 284 283 283 282 281 281 281 281 280 280 279 278 278 278 277 277 277 277 277 277 277 277 278 279 285 286 287 286 285 283 281 277 278 278 278 278 277 277 276 275 276 275 276 276 276 276 277 278 280 281 281 281 281 281 281 282 283 282 282 282 280 280 278 280 281 280 281 282 283 281 280 280 280 281 280 280 279 281
285 285 284 284 284 284 283 283 282 282 281 281 280 280 280 279 278 278 278 278 277 277 277 276 276 276 276 276 277 278 281 285 286 286 286 284 283 281 277 278 278 278 278 277 276 276 275 276 275 275 275 275 276 279 280 281 281 281 280 280 280 280 281 281 280 280 280 281 281 281 281 282 282 281 282 283 282 282 282 281 281 281 281 282 280
285 285 284 284 284 284 283 282 282 281 281 280 280 280 279 278 278 276 276 276 276 276 275 276 275 275 275 275 275 276 279 284 285 285 285 283 282 278 277 278 277 277 277 277 277 276 276 275 275 275 275 275 278 281 282 282 281 280 279 279 279 280 279 281 282 283 282 282 282 281 281 281 283 282 283 283 283 283 283 283 282 281 278 276 275
285 284 285 284 284 283 283 282 281 281 280 280 279 279 278 277 276 276 276 276 276 275 275 274 274 274 273 274 274 275 276 282 284 284 284 283 280 277 277 276 276 276 276 277 276 275 275 275 275 275 275 275 279 282 283 282 280 279 278 278 278 277 276 278 282 283 283 283 283 283 283 284 284 284 285 285 283 283 280 278 277 278 275 273 273
285 285 285 284 284 283 283 282 281 280 280 280 279 279 277 276 276 276 277 276 275 275 274 274 273 273 274 274 275 275 277 281 283 284 283 282 279 277 276 275 275 276 276 277 277 276 276 277 277 275 276 277 281 282 283 281 279 278 278 277 276 275 276 279 280 280 282 281 281 281 282 282 283 283 283 283 283 281 277 275 277 277 273 273 271
285 285 285 284 283 283 282 281 281 280 280 280 279 278 277 277 275 275 275 275 274 273 273 274 273 273 274 276 277 276 276 278 282 283 283 282 279 277 276 274 275 276 276 275 276 276 276 276 277 277 277 279 282 282 282 281 279 278 277 276 275 275 277 279 278 277 277 276 277 278 278 280 280 279 280 281 281 280 279 278 278 275 272 272 271
287 286 285 283 283 282 281 281 280 280 280 279 278 277 275 274 274 274 273 274 273 273 274 274 274 274 275 275 275 275 275 276 279 282 282 281 281 277 276 275 275 275 276 275 274 274 274 273 275 278 279 281 281 281 281 281 279 278 277 275 275 275 279 278 278 277 276 276 276 277 278 279 279 279 278 277 278 279 279 278 277 275 272 271 271
285 284 283 282 281 281 280 280 279 279 278 277 277 275 275 275 274 273 273 273 273 273 274 274 274 274 275 275 275 275 275 274 277 280 281 281 281 279 276 276 276 276 275 274 274 273 272 272 275 277 280 281 280 280 280 280 280 278 277 276 277 279 280 277 276 277 276 276 276 277 277 277 277 276 276 277 277 278 277 277 275 274 272 271 270
283 282 281 281 280 279 278 278 277 277 275 275 275 274 273 274 274 273 273 273 273 273 273 274 274 274 274 274 274 273 275 276 275 278 279 280 280 280 277 277 278 276 275 274 274 273 274 275 275 278 280 279 279 279 280 280 280 278 278 280 280 280 277 276 275 275 275 276 276 275 275 274 274 274 275 276 276 276 275 274 273 272 272 272 271
281 281 280 279 278 277 276 276 275 275 275 275 275 274 273 273 273 273 273 273 274 273 274 274 273 273 273 273 273 273 273 273 276 275 278 279 279 279 279 278 279 277 275 274 273 273 275 275 277 278 278 278 278 279 279 279 277 277 279 279 278 278 276 275 275 275 275 275 274 273 273 273 272 273 274 275 275 275 273 273 272 271 271 272 273
280 279 278 277 276 275 274 274 274 274 274 274 274 273 273 272 272 273 273 273 273 273 273 273 273 272 272 272 273 273 273 272 274 276 276 278 278 279 279 278 278 277 276 275 274 275 275 276 277 277 277 277 278 278 278 277 276 277 277 276 276 275 274 273 273 274 274 273 272 271 271 272 272 273 273 274 274 273 272 272 271 271 271 271 271
278 277 277 275 275 273 273 273 273 273 273 274 273 273 272 272 272 272 273 273 273 273 272 272 272 272 272 272 272 272 272 272 272 274 276 276 277 277 278 278 277 277 274 274 275 276 277 278 276 276 276 276 276 276 274 274 274 274 274 274 272 271 272 272 272 272 271 270 270 270 271 272 272 273 274 274 273 273 271 271 271 271 270 270 270
277 276 275 274 273 272 272 271 271 272 272 273 273 274 273 273 273 273 273 274 273 272 272 272 272 272 271 272 271 271 271 271 271 272 274 275 275 276 276 276 276 276 276 275 276 277 276 275 275 275 274 273 271 269 268 269 271 272 272 270 268 269 270 270 270 269 269 269 269 269 270 271 272 274 275 274 272 271 270 269 269 268 268 268 267
277 275 274 273 272 272 272 272 271 271 271 271 272 273 273 274 274 273 273 273 273 272 272 271 271 271 271 270 270 270 269 270 271 272 273 274 274 275 275 274 275 275 274 274 274 271 271 271 270 272 271 272 271 270 269 269 266 266 265 266 266 268 270 269 269 268 268 268 269 269 270 272 273 273 272 271 270 270 270 268 267 267 267 267 265
276 274 273 273 272 272 273 272 272 271 271 272 272 272 273 274 274 273 273 273 273 272 272 271 271 271 271 270 269 268 268 268 270 271 273 274 274 274 274 274 274 272 271 273 271 267 265 269 268 265 264 264 264 262 261 262 264 264 264 264 265 268 269 269 269 268 268 268 269 270 270 271 271 271 271 271 270 270 269 267 266 265 266 266 265
275 273 272 272 271 272 272 272 272 271 271 271 271 272 273 274 274 274 273 273 274 274 273 273 273 273 272 270 268 268 268 269 270 274 274 276 275 273 273 273 272 272 274 274 268 264 262 261 261 262 261 262 261 260 260 260 261 262 262 263 264 266 266 265 265 265 266 266 267 268 269 270 270 271 270 270 269 269 268 266 265 264 265 265 264
273 272 272 272 271 271 271 271 270 271 271 270 270 270 273 275 273 273 271 274 275 275 276 272 273 271 270 270 270 270 270 271 275 277 277 277 276 276 276 275 275 273 273 272 267 257 259 258 259 260 260 258 259 259 260 260 260 260 261 264 265 264 264 264 264 264 264 265 266 268 269 269 269 270 270 269 269 268 268 267 264 264 262 263 263
273 272 271 271 271 271 271 270 270 269 270 270 270 270 271 273 275 275 274 275 276 276 276 275 274 273 271 268 270 274 274 276 277 277 277 276 276 275 275 275 275 273 272 265 260 258 257 258 259 258 259 258 258 258 259 259 259 260 261 262 263 263 263 263 263 263 263 264 266 267 268 269 269 269 269 269 268 267 266 264 262 263 262 263 264
274 272 272 271 271 270 270 269 269 269 269 270 270 271 271 271 273 275 276 277 277 277 277 276 276 275 274 272 271 272 275 276 276 276 276 275 275 274 274 274 273 272 270 269 258 258 256 257 257 257 257 257 258 258 258 257 258 258 260 261 261 261 261 261 262 262 263 264 264 265 267 268 268 269 269 269 268 267 266 264 263 262 262 262 263
273 272 271 270 270 270 269 269 268 269 268 269 269 271 272 272 271 271 274 277 278 278 277 277 276 276 275 275 275 274 275 275 276 276 275 275 274 273 273 273 272 271 269 260 256 256 257 257 256 256 256 256 256 255 256 256 256 258 259 260 259 259 260 261 262 261 263 263 264 264 266 267 268 269 269 269 268 266 266 264 261 260 260 261 262
270 270 270 270 270 269 269 269 268 268 269 269 270 271 272 273 272 271 271 273 274 274 276 277 276 277 276 276 275 275 276 276 275 275 275 274 273 273 272 270 271 270 265 257 255 255 257 256 256 256 255 256 256 256 256 255 256 257 258 258 258 259 259 260 259 260 261 262 262 264 265 266 267 268 268 268 267 266 265 264 261 260 260 260 261
267 268 269 269 269 269 269 269 268 268 268 269 270 271 272 272 272 271 271 271 270 268 269 271 274 276 274 274 275 275 275 275 274 274 274 273 272 272 270 264 260 258 257 256 256 254 255 256 254 255 254 254 255 255 255 254 255 256 256 257 257 257 258 258 259 260 260 261 262 263 264 265 266 268 268 267 266 265 265 264 263 261 260 260 260
266 267 267 268 268 268 267 267 267 267 267 268 270 271 271 270 270 271 271 271 270 268 267 268 268 273 274 273 274 274 275 274 274 274 273 272 271 270 261 259 258 256 256 255 255 256 256 254 255 254 254 254 254 253 253 254 255 255 255 255 257 257 257 257 259 260 260 260 262 263 263 263 265 266 267 267 266 265 265 264 264 264 262 260 261
266 266 266 265 266 266 265 265 265 266 268 267 268 268 269 269 269 270 270 270 269 268 267 266 264 265 270 268 271 273 274 273 273 273 272 271 270 264 259 260 258 257 256 255 255 255 253 253 253 253 253 253 253 253 253 253 253 254 256 256 255 256 256 258 259 260 259 260 261 261 262 262 264 265 266 266 266 265 264 265 264 264 263 263 264
265 265 265 264 264 265 264 265 263 267 266 266 267 267 267 267 267 267 268 268 268 267 265 265 266 265 265 264 267 266 269 272 272 271 270 267 262 259 259 258 257 257 255 254 254 253 252 252 251 252 252 252 252 252 252 252 253 253 254 254 255 256 260 259 259 258 259 259 260 261 262 262 263 264 266 266 265 264 264 264 263 262 261 262 260
262 265 266 267 266 264 264 263 263 264 264 265 265 266 266 266 266 266 267 267 266 266 265 264 265 265 265 264 264 266 266 264 263 261 260 259 258 258 257 257 257 255 255 254 254 254 251 252 253 253 252 251 252 252 251 252 252 253 253 254 255 255 256 256 257 257 258 259 260 260 261 261 262 263 265 266 265 265 264 263 262 262 261 259 258
263 262 264 266 264 265 263 263 263 263 263 264 264 265 265 265 265 265 266 266 265 265 265 264 264 264 264 263 263 264 262 262 262 261 260 259 258 257 256 256 255 256 255 253 252 251 251 252 252 251 252 251 251 250 251 252 252 253 253 253 254 255 256 256 257 258 259 260 260 260 260 261 262 264 265 266 266 265 264 263 262 262 260 259 259
261 262 263 265 264 263 262 262 262 263 263 263 263 264 265 265 265 265 265 265 265 265 264 264 264 264 263 263 266 266 263 262 261 260 259 258 258 258 256 256 256 255 255 254 253 251 251 251 251 251 251 251 250 250 251 251 252 253 253 255 254 256 256 257 258 260 261 260 260 260 260 261 262 263 263 264 266 266 264 263 262 261 261 261 260
261 261 262 262 264 263 262 262 262 263 263 263 263 264 264 265 265 265 265 264 265 264 263 263 263 262 263 265 266 267 263 261 260 259 259 259 258 258 258 256 256 256 255 254 252 252 251 251 252 252 252 252 251 251 251 251 252 253 254 255 255 256 257 258 259 260 260 260 260 260 260 261 262 263 263 265 264 264 264 263 261 260 260 260 260
260 260 261 261 262 262 262 262 262 262 262 262 263 264 264 265 265 265 264 264 264 264 263 262 262 261 262 266 266 268 263 261 260 259 259 258 258 258 257 257 256 255 254 253 252 253 254 253 252 252 253 253 250 250 251 252 252 253 253 254 255 256 257 258 259 260 261 260 260 260 260 260 261 261 262 263 264 264 264 264 263 261 261 260 260
259 260 260 261 261 262 262 261 262 262 262 263 263 263 263 264 264 264 264 264 263 263 263 262 261 260 260 264 265 265 262 261 260 259 258 258 258 257 257 257 255 253 252 252 253 253 253 251 251 251 251 251 250 248 250 251 253 253 254 254 256 257 257 258 259 260 261 260 260 260 260 260 260 261 262 263 263 263 263 263 263 262 262 261 260
258 259 259 259 260 260 261 261 262 261 262 262 262 262 263 263 263 263 263 263 263 263 262 262 262 260 260 262 263 263 262 261 260 259 258 258 258 258 258 256 255 254 253 252 253 251 251 251 250 250 250 250 249 250 250 251 251 252 252 254 255 255 256 257 259 261 262 261 260 260 259 259 259 260 261 262 263 262 263 263 263 263 262 262 261
258 258 259 259 259 260 260 260 260 261 261 261 261 261 261 262 263 263 263 262 262 262 262 261 261 261 260 261 261 261 261 261 259 259 259 258 258 258 257 256 255 254 253 253 252 250 251 251 250 250 251 250 250 249 250 250 251 251 250 252 254 255 257 258 259 261 262 261 260 260 259 259 259 260 261 261 262 262 262 262 262 263 262 262 262
256 257 258 259 259 259 260 260 259 260 260 260 261 261 261 261 261 262 262 262 262 262 261 261 260 260 261 261 261 260 260 260 259 259 258 258 258 257 256 254 254 253 253 252 250 251 250 251 251 252 251 250 250 251 251 250 248 249 250 251 251 254 255 257 259 261 261 261 261 260 259 259 258 259 259 260 260 261 261 261 262 261 261 262 261
256 257 257 258 258 258 259 259 260 261 260 260 261 261 261 261 261 261 262 262 262 262 262 261 261 260 261 261 260 260 260 259 259 258 258 258 257 256 255 254 254 254 253 252 249 249 250 250 250 250 250 251 251 251 251 250 249 249 249 249 251 252 255 257 258 260 262 262 261 260 258 257 257 257 258 258 258 259 260 260 261 261 261 261 261
256 257 257 258 258 259 259 259 260 260 260 260 260 261 261 261 261 261 262 262 262 262 262 261 260 260 260 260 260 259 259 258 258 257 257 257 257 256 255 254 254 253 252 252 251 250 251 251 251 250 250 251 251 251 250 250 250 249 249 248 252 255 257 258 259 260 261 262 261 259 256 254 254 255 256 257 257 258 258 259 259 261 260 261 260
257 257 257 257 258 258 258 259 259 259 259 259 260 260 260 261 261 261 261 261 262 262 261 261 260 260 260 259 259 258 258 257 257 257 257 257 256 255 254 254 253 253 253 252 252 252 251 250 249 249 250 250 250 250 249 250 249 250 248 250 255 257 258 259 260 260 261 261 261 258 256 254 253 253 254 255 255 256 257 258 259 260 260 260 260
257 257 257 257 257 257 257 257 258 258 258 259 259 260 260 260 260 260 260 260 261 261 261 261 261 260 260 259 259 258 258 257 257 257 257 256 256 255 254 253 253 253 253 252 252 252 251 250 249 250 250 250 250 250 249 249 248 249 252 254 256 257 258 259 259 260 261 261 260 259 257 255 253 253 254 254 254 254 257 258 258 258 258 259 259
Wind_Speed
7 7 7 7 9 9 9 8 8 8 8 7 9 9 8 8 8 8 7 6 7 7 8 8 7 7 6 5 6 6 6 5 4 5 6 6 5 5 4 6 6 4 4 5 5 5 5 4 4 4 3 4 4 3 3 3 3 2 2 1 2 4 3 5 10 15 18 7 6 10 10 10 12 11 14 14 17 16 14 11 12 13 12 11 12
6 7 6 8 8 9 9 7 8 8 9 8 9 8 8 8 8 8 8 6 7 8 8 7 6 6 7 6 5 6 5 6 4 5 7 7 6 4 5 5 5 4 4 5 4 4 3 4 4 4 3 3 3 4 3 4 4 3 3 3 3 4 3 3 6 10 17 18 14 12 11 4 11 10 11 14 16 16 19 16 11 12 11 10 9
5 6 7 7 8 7 8 9 8 9 10 9 9 9 8 7 7 10 8 7 5 7 8 7 6 6 7 6 6 6 5 6 4 6 6 6 6 5 4 5 6 5 5 4 4 3 4 4 4 4 3 4 3 3 3 3 3 3 4 3 3 4 4 4 6 10 14 17 15 13 13 14 11 12 11 10 11 12 15 15 14 13 12 12 12
5 6 7 7 7 8 8 8 9 8 10 8 10 8 8 8 7 8 8 7 8 6 6 7 6 6 7 6 6 6 6 5 5 5 6 6 5 5 5 5 5 5 4 4 4 4 4 4 4 4 4 4 4 4 3 3 3 3 3 3 3 4 4 4 5 8 11 15 17 14 13 14 15 12 11 12 12 12 11 14 11 11 12 13 13
4 5 7 8 6 8 8 7 9 9 9 8 9 8 8 8 7 8 9 8 7 8 5 5 6 6 8 7 6 6 5 5 6 6 5 5 5 5 4 4 4 4 4 4 4 4 4 4 4 4 4 5 5 6 5 6 5 4 5 5 4 4 4 4 5 6 9 13 16 14 13 11 11 12 7 11 13 12 12 13 13 13 14 13 11
4 7 7 8 7 7 7 7 8 9 9 9 9 9 8 8 8 6 8 10 7 6 7 5 6 7 6 6 6 6 5 5 6 6 5 4 4 4 4 4 4 4 4 3 3 3 3 3 3 3 4 4 5 5 5 6 5 5 5 6 5 5 5 5 6 7 9 11 12 16 13 14 13 11 12 12 13 15 12 13 14 13 13 16 15
5 6 7 7 8 7 8 7 8 8 8 8 8 7 7 7 8 8 7 9 9 8 6 7 4 7 6 6 6 6 6 6 6 5 4 4 4 4 5 4 4 4 3 3 3 3 3 3 3 3 3 3 4 5 5 5 5 6 6 6 5 6 7 7 7 8 9 11 10 9 12 10 10 16 13 10 12 10 14 13 14 10 11 12 17
6 6 7 7 7 8 7 7 8 8 7 7 7 7 7 7 7 7 7 8 8 8 8 8 6 6 6 6 5 5 6 6 5 4 4 4 5 5 4 4 4 3 3 3 3 3 3 2 2 3 3 3 3 4 5 6 5 5 5 5 6 8 8 8 7 8 9 9 9 11 9 12 11 9 11 11 12 10 6 11 16 17 14 13 14
7 7 7 8 7 7 7 6 6 7 8 8 8 8 7 7 7 7 7 6 6 7 7 8 9 8 6 6 6 5 6 5 4 4 5 4 4 4 3 3 3 4 3 3 3 3 3 3 3 3 4 6 8 8 8 9 6 6 5 6 7 8 8 8 7 7 8 8 10 8 10 11 9 11 12 13 13 15 16 12 13 12 14 15 15
8 8 8 7 7 7 7 7 7 8 9 9 8 8 8 8 8 8 7 7 7 7 7 6 7 9 8 6 6 6 5 4 6 9 7 4 4 3 3 4 3 3 3 3 3 3 3 3 3 5 7 7 8 10 11 12 11 8 8 7 8 8 8 8 8 7 9 11 10 10 12 12 13 10 10 11 13 14 13 13 15 14 14 13 14
7 8 8 7 7 7 7 7 8 9 8 8 8 9 9 8 8 8 7 7 8 7 8 8 7 7 7 7 7 5 4 4 9 10 10 9 4 3 4 4 3 3 3 3 3 3 3 3 3 4 4 5 4 9 12 12 12 12 13 13 11 10 9 10 10 9 9 9 10 9 9 13 13 10 10 14 12 14 14 13 14 13 13 14 17
8 7 7 7 7 8 8 8 9 8 8 9 9 8 8 8 8 8 8 8 7 6 8 7 7 7 7 7 6 5 4 7 10 9 9 10 7 4 4 4 4 4 3 3 2 2 3 3 3 3 3 5 6 5 7 11 12 13 14 14 14 15 14 11 11 11 10 11 11 10 10 10 14 12 12 11 13 13 14 14 13 14 15 16 16
7 7 7 8 9 8 9 10 9 9 9 9 8 8 8 8 8 8 8 7 7 8 7 8 7 6 7 8 6 4 4 9 10 10 10 10 10 6 4 3 5 4 3 2 2 2 3 4 3 4 3 7 6 5 6 7 10 12 14 14 13 14 15 16 16 12 11 11 12 13 11 12 14 11 10 13 14 14 15 13 13 11 13 14 14
8 8 8 8 9 9 9 9 10 9 8 8 8 9 8 9 7 6 7 6 8 8 6 8 7 7 7 7 7 5 4 8 10 9 10 10 10 6 3 4 4 4 3 2 2 2 3 3 4 4 4 5 6 7 8 8 8 8 7 7 8 10 13 14 15 16 13 10 11 13 13 11 12 14 13 13 14 14 13 14 13 14 16 16 16
8 8 9 9 9 9 9 9 9 9 9 9 8 8 8 7 7 7 7 8 9 9 9 8 7 6 7 6 7 6 4 9 9 9 9 10 10 7 4 4 3 3 2 2 2 2 2 3 3 3 4 5 6 9 9 9 9 8 8 8 8 7 7 7 6 7 8 8 9 11 11 10 12 13 13 11 13 13 13 16 15 16 16 13 15
9 8 9 10 10 10 10 10 9 9 10 9 9 9 8 8 9 7 6 6 5 6 5 6 8 7 6 6 7 6 4 9 9 9 9 10 10 5 4 4 3 3 2 2 2 2 2 3 3 4 4 5 9 14 14 12 10 11 11 9 8 6 5 7 13 13 12 11 10 11 12 15 19 16 16 16 13 12 13 12 13 10 11 13 14
9 10 10 10 10 10 10 11 11 10 10 10 10 9 9 8 6 6 8 7 8 7 7 6 6 7 7 5 7 6 4 6 8 8 9 11 7 4 3 3 3 2 3 3 2 2 2 3 3 4 5 5 10 16 17 17 9 11 12 12 9 8 7 6 9 13 16 18 20 22 22 24 24 24 24 25 19 15 13 14 12 11 13 12 14
9 10 10 10 10 10 10 10 11 10 10 11 11 8 6 5 6 6 9 9 8 7 7 7 5 5 6 6 6 7 5 5 8 8 9 10 8 4 3 3 3 3 4 4 3 3 3 6 6 4 5 6 13 16 17 13 8 9 11 12 14 12 11 9 8 8 13 15 16 17 19 19 20 21 21 21 22 18 11 13 13 12 13 11 13
11 12 11 10 10 9 9 9 9 11 11 10 10 11 9 9 6 5 6 6 8 7 7 8 7 4 4 5 7 7 5 4 7 8 9 9 7 4 3 2 4 4 3 3 4 3 2 4 7 7 7 9 16 16 17 13 8 8 9 11 12 13 11 11 12 14 15 14 12 12 10 12 11 10 12 23 23 16 10 10 9 10 13 12 11
12 9 8 9 9 9 8 10 9 10 11 9 8 8 7 8 7 7 6 6 8 7 6 7 8 6 5 5 5 4 5 3 3 8 8 8 8 4 2 3 5 4 3 3 3 2 2 2 4 8 10 13 15 15 15 15 9 7 7 8 10 12 11 12 12 12 13 12 13 12 12 11 9 8 10 12 12 12 12 9 9 9 10 12 10
7 8 7 8 8 8 7 8 10 7 6 8 8 7 7 8 8 8 9 7 7 7 7 6 7 6 5 4 4 3 3 4 3 7 7 7 7 6 2 4 3 3 2 2 2 2 2 2 3 7 12 14 14 14 13 13 12 7 7 6 9 14 15 10 14 17 12 11 11 10 11 10 10 9 9 8 9 10 10 10 8 8 9 10 9
7 7 8 8 7 7 7 6 6 7 7 9 9 8 5 6 7 8 7 8 9 8 7 6 7 6 4 3 3 4 3 5 2 5 6 6 5 6 4 3 3 3 2 1 2 2 3 4 4 8 13 13 12 12 12 11 12 6 8 14 17 17 12 9 10 9 9 8 9 9 10 11 12 10 9 9 8 9 11 9 9 8 8 8 8
8 8 8 8 8 8 7 8 8 7 8 8 10 10 8 8 7 7 9 8 9 9 8 7 7 6 4 3 2 2 3 2 5 3 5 4 5 6 6 4 5 3 1 1 2 2 3 5 6 11 12 12 11 11 10 11 8 8 14 14 15 16 12 7 9 9 8 9 10 10 10 10 11 11 11 11 10 11 10 10 9 9 9 9 9
8 8 8 8 8 8 8 8 8 7 9 9 9 10 9 8 7 7 7 8 8 8 6 6 7 6 5 4 3 2 1 2 2 4 3 4 4 5 4 5 5 2 1 1 1 3 4 4 6 12 11 11 11 10 10 9 9 13 14 15 15 13 7 8 7 8 9 8 8 8 9 9 10 11 11 10 11 11 11 11 10 9 8 8 10
8 8 8 8 8 7 7 7 7 7 7 9 10 9 9 9 9 6 7 6 7 8 8 9 9 7 5 5 4 3 2 2 1 1 3 3 3 3 4 4 4 4 1 1 3 3 6 9 10 9 9 10 11 10 8 10 13 13 14 14 12 6 7 7 8 8 8 8 8 8 8 8 9 9 10 11 10 9 8 9 10 9 8 7 6
9 9 8 8 8 8 8 6 6 6 7 6 7 8 11 11 9 9 7 6 7 8 8 8 6 8 5 4 4 4 3 2 2 1 2 2 2 2 4 3 2 3 3 3 6 6 7 7 8 7 8 8 6 4 4 6 12 13 14 12 6 6 6 7 8 9 8 8 9 9 9 10 10 10 9 9 9 10 9 10 10 10 10 10 9
8 7 8 8 7 8 10 9 8 7 7 6 5 6 6 7 8 9 8 8 8 7 7 8 8 8 8 7 4 4 4 4 3 2 2 3 1 1 1 1 2 2 2 3 2 2 3 4 3 6 6 10 9 8 7 8 6 6 5 5 5 6 6 7 8 8 9 9 9 8 9 9 9 8 8 9 8 8 8 9 9 9 9 8 6
10 9 9 8 8 8 8 9 9 8 7 7 8 7 6 6 9 10 11 11 10 9 8 9 9 9 8 9 7 6 6 4 4 4 3 3 2 2 1 2 2 0 1 2 2 2 3 5 5 3 2 3 4 3 3 3 5 5 5 5 5 6 8 11 11 7 8 8 8 9 8 8 9 8 8 7 8 8 8 8 7 8 8 7 6
7 8 8 7 8 7 7 8 8 8 8 6 4 3 7 8 7 5 0 2 5 10 11 10 8 7 8 10 12 9 5 5 6 6 5 5 5 3 2 3 2 1 2 1 4 3 3 4 2 4 4 4 4 3 3 3 4 5 5 5 5 6 6 6 7 8 8 9 8 8 9 9 9 8 8 8 8 8 7 7 7 6 7 5 5
7 8 7 7 7 7 6 6 6 6 7 7 6 3 3 3 2 4 4 3 2 2 5 6 7 8 8 5 6 6 8 6 9 11 8 6 5 4 4 4 3 2 0 4 6 4 4 3 3 3 3 4 4 4 4 4 4 6 5 7 6 6 7 7 7 7 8 9 9 9 9 9 8 8 8 8 8 8 7 7 7 6 5 6 6
6 6 6 7 8 8 7 7 6 6 5 6 6 6 6 3 4 5 5 5 6 7 7 6 11 10 8 8 5 5 8 11 12 10 9 7 6 5 5 4 4 3 2 5 4 4 3 2 2 2 2 3 3 4 3 4 4 5 6 6 5 6 7 7 8 8 9 8 9 8 8 8 8 8 8 8 9 8 7 6 5 6 5 5 6
7 7 7 5 6 6 5 5 5 6 5 5 6 6 7 6 5 6 7 7 8 8 8 11 12 11 10 9 7 6 9 11 11 10 10 8 7 6 6 6 6 4 3 7 5 3 2 1 0 1 1 3 4 4 3 3 3 4 4 5 6 5 6 6 8 8 8 8 8 9 9 8 8 7 7 8 8 8 7 7 7 6 6 5 5
5 5 5 5 5 6 6 6 6 6 7 7 7 7 9 9 9 7 5 7 9 9 10 11 12 11 12 13 12 10 10 11 12 11 10 9 9 7 8 8 7 6 7 6 6 2 1 0 0 1 1 2 5 4 3 2 3 3 3 4 5 6 5 7 8 7 7 8 9 9 9 8 8 8 7 7 8 8 7 6 6 5 5 5 5
3 5 6 7 7 6 6 6 7 7 6 7 7 8 8 8 8 9 9 7 6 6 9 11 11 12 13 13 13 13 13 12 12 12 11 10 9 9 9 6 9 7 7 5 5 2 1 1 1 1 2 3 4 4 3 3 3 3 3 3 4 5 6 7 6 6 6 7 8 8 9 8 9 8 7 7 7 6 6 6 5 5 6 5 5
2 4 7 7 6 7 6 6 6 6 6 7 7 7 7 6 7 10 11 12 12 10 8 8 10 13 10 10 12 13 13 13 12 11 11 11 10 11 10 6 4 3 4 2 3 2 2 1 1 1 2 4 5 4 4 4 3 3 3 4 5 5 6 6 6 6 6 7 7 7 8 9 9 8 7 7 8 8 7 6 6 5 5 5 5
4 4 4 6 5 5 6 6 6 6 7 7 6 5 4 5 6 8 6 6 7 8 6 6 4 7 12 10 13 12 13 12 12 12 11 11 12 12 6 5 5 5 4 2 3 2 1 2 1 1 3 4 6 5 5 4 4 3 3 3 5 5 6 6 7 6 7 7 7 8 9 8 8 9 7 6 6 6 6 6 5 5 4 4 4
5 4 4 4 4 4 5 4 5 5 5 5 4 5 4 4 3 4 5 7 7 7 7 6 3 4 7 5 8 10 12 11 11 11 10 9 9 5 4 6 7 6 6 5 3 3 2 2 1 1 3 5 5 6 5 4 5 4 3 3 4 5 5 5 6 7 7 7 7 7 8 8 9 9 8 7 6 5 5 5 4 5 5 5 5
3 4 4 4 4 5 4 6 5 6 5 6 5 5 6 5 6 6 6 7 8 8 9 9 8 10 10 8 6 2 5 11 10 8 8 7 5 4 4 5 5 5 5 3 3 3 3 2 1 3 6 6 5 6 4 4 4 4 5 4 4 4 8 7 8 6 6 6 6 7 7 8 8 8 8 7 6 6 6 5 5 5 4 4 3
2 2 4 4 4 4 5 4 5 6 6 6 7 7 7 6 7 7 8 7 7 7 7 8 10 10 8 7 8 6 7 6 7 7 6 5 4 4 5 4 4 4 3 5 3 3 3 2 2 3 6 6 6 5 4 5 4 4 4 4 4 4 5 5 6 6 5 6 6 6 7 7 8 8 8 7 7 6 6 5 4 4 4 3 1
4 3 4 5 5 5 5 5 5 6 7 7 7 7 7 8 9 9 8 8 9 9 8 10 10 9 7 11 9 9 9 9 8 7 7 7 8 6 6 6 5 6 6 5 5 5 3 2 3 5 6 6 6 5 3 3 3 5 3 4 4 5 5 5 6 6 6 6 7 7 7 8 8 8 7 7 7 6 6 5 4 3 2 1 0
4 4 4 4 5 5 5 5 6 7 6 6 6 7 9 9 8 7 8 9 9 8 9 9 9 7 8 11 13 13 9 9 8 8 9 10 8 8 9 7 6 6 5 5 5 4 3 3 4 6 6 6 5 5 3 2 3 3 4 4 3 4 4 5 5 5 6 6 6 7 7 7 8 8 8 7 8 8 6 5 3 2 1 0 1
4 3 4 4 5 5 5 7 7 6 6 7 7 8 7 7 7 7 7 8 7 7 8 8 7 6 8 16 16 16 8 5 6 8 9 8 9 8 7 7 6 6 5 5 6 4 3 4 5 6 7 6 5 4 2 2 2 3 3 4 4 4 4 5 5 5 5 6 6 7 7 8 8 8 8 9 7 7 7 6 5 2 1 1 1
4 4 5 5 5 6 7 6 5 6 6 7 7 6 6 7 7 7 7 7 8 7 8 8 7 7 8 13 14 15 7 7 4 9 9 9 8 8 8 8 7 6 6 5 6 5 4 5 6 6 6 7 6 4 3 3 2 3 4 3 4 4 5 5 5 5 5 6 6 7 8 8 8 7 7 7 7 7 6 6 5 4 3 2 2
4 4 5 5 6 5 6 5 6 7 6 7 6 7 7 7 7 7 8 8 8 7 8 9 10 11 9 9 11 8 7 7 8 9 9 9 10 10 8 7 7 5 5 5 5 4 4 5 6 6 5 6 6 4 4 4 4 4 4 4 4 4 4 4 5 5 6 6 7 7 7 8 8 8 8 8 7 7 7 6 5 4 4 4 3
4 3 4 4 5 5 6 5 6 6 7 6 6 6 7 7 8 7 7 8 7 6 6 6 8 9 9 8 8 8 8 8 8 7 8 9 7 5 6 6 7 6 6 6 5 4 4 5 6 5 5 5 5 5 4 3 4 5 5 5 4 5 5 5 5 6 5 6 6 6 7 7 7 7 7 7 7 7 7 6 6 5 4 3 4
4 4 5 5 5 6 6 5 6 6 6 7 7 7 7 7 8 8 7 7 7 7 7 7 7 8 9 9 9 8 8 8 8 7 6 8 9 8 7 6 7 7 6 5 4 4 5 6 6 6 6 5 5 4 4 4 4 5 5 5 5 5 5 6 7 7 5 5 5 6 6 7 7 7 9 8 7 7 7 7 6 5 4 4 4
4 4 5 5 5 6 6 6 5 6 6 6 7 7 7 7 7 8 8 9 9 8 9 10 11 10 11 11 11 10 9 8 8 8 8 9 8 7 6 6 6 6 5 5 4 5 6 6 6 6 6 4 4 5 5 5 4 5 4 5 5 5 5 5 6 7 6 5 5 5 5 5 7 7 9 8 7 7 7 7 6 6 5 4 4
5 5 5 6 5 5 5 5 6 7 7 8 7 7 8 7 7 8 8 9 10 10 10 11 15 13 9 10 9 9 8 8 7 6 7 8 7 6 6 6 6 5 5 5 5 6 5 5 6 6 5 5 4 4 4 5 4 5 4 4 5 5 7 8 7 7 6 5 5 4 4 5 6 6 7 7 7 7 7 7 7 6 5 4 4
5 5 5 5 6 6 6 6 7 7 7 7 7 8 8 7 8 8 9 9 10 10 10 11 13 12 9 8 7 8 8 6 7 7 8 7 7 6 6 6 5 5 5 5 6 6 6 6 6 6 6 5 5 5 5 4 5 4 4 4 6 10 12 12 8 6 8 7 5 4 3 3 4 6 6 6 7 6 6 7 6 6 5 4 3
5 5 5 5 6 6 6 6 6 6 7 6 7 7 7 8 8 8 8 9 9 9 9 9 10 10 10 9 8 9 9 8 8 7 5 6 7 6 6 6 5 5 6 6 5 5 5 5 6 5 5 5 5 5 5 5 5 5 3 5 9 12 11 12 11 11 8 5 4 3 4 4 4 4 5 6 6 6 6 6 6 7 5 5 4
6 5 5 5 6 5 6 6 6 6 6 7 7 8 8 8 8 8 8 9 10 9 9 10 9 8 9 10 7 8 9 9 5 7 8 8 8 7 6 6 6 6 5 5 5 5 5 5 5 5 5 5 5 5 5 5 4 5 7 10 12 11 11 10 7 8 10 6 4 5 5 5 4 5 5 5 5 5 7 7 7 6 5 5 4
Wind_Direction
159 153 143 143 143 145 139 134 131 130 130 132 127 130 131 128 124 128 121 132 135 135 132 132 132 132 132 124 119 117 109 102 95 101 93 92 78 87 76 74 79 63 62 45 41 43 40 34 17 6 12 10 350 342 345 340 341 337 311 306 282 283 285 282 287 293 299 297 291 303 325 332 322 345 328 325 323 322 317 310 308 309 309 309 307
155 142 141 144 144 137 133 129 133 133 129 126 123 126 128 126 130 128 132 142 145 137 129 129 130 132 121 117 110 105 101 98 101 98 98 93 80 70 75 78 76 67 58 47 35 40 43 32 11 6 10 7 339 346 337 339 347 349 335 331 300 296 274 287 287 292 296 309 316 319 312 343 314 328 326 324 321 318 321 322 315 309 306 303 300
141 139 137 136 130 128 130 133 132 131 126 127 126 128 127 128 136 133 137 141 132 126 130 130 132 125 116 115 111 102 98 96 88 91 90 93 92 77 76 76 72 64 55 46 35 23 35 29 11 2 358 1 355 337 333 337 334 335 324 311 304 288 281 257 287 295 302 302 308 313 320 323 321 320 321 313 308 310 311 316 318 316 313 312 314
131 125 122 119 126 128 130 133 131 132 128 132 130 133 133 135 135 132 137 135 123 111 120 131 129 127 119 113 106 107 101 98 89 84 91 96 92 88 80 77 77 76 70 50 34 32 26 17 5 359 356 1 351 348 342 337 335 332 315 309 292 292 279 268 252 276 295 302 308 314 318 320 319 323 322 314 317 317 311 305 299 302 304 309 310
124 122 127 127 131 132 135 139 134 132 130 133 135 137 138 135 138 140 134 121 121 122 121 130 126 123 119 119 114 107 113 112 102 92 83 84 93 93 88 83 76 70 63 52 41 36 22 19 350 355 357 358 347 347 340 339 336 330 323 312 307 291 283 274 269 269 286 294 299 304 310 306 305 308 315 319 321 314 310 306 309 310 309 300 298
136 135 136 135 137 136 138 137 137 138 138 139 142 142 138 139 138 131 129 125 123 128 132 132 126 118 114 115 113 114 113 107 100 99 99 100 98 96 92 83 78 71 63 54 45 40 32 6 354 358 358 357 336 326 328 326 325 323 317 313 303 297 293 286 276 279 279 283 291 302 309 317 318 315 325 324 315 312 311 311 311 314 313 311 309
149 146 145 143 143 147 149 148 141 140 142 139 135 134 136 140 136 131 129 129 133 133 130 118 116 116 117 114 114 116 109 99 98 102 107 103 101 91 79 75 72 71 71 62 53 44 34 17 356 356 352 338 322 317 315 314 314 310 305 305 302 302 301 296 293 289 288 292 291 287 298 301 311 312 316 311 301 302 309 315 309 304 306 304 308
156 153 150 150 153 152 152 145 140 139 135 132 134 135 136 134 126 123 127 131 135 136 134 125 120 110 112 107 110 107 100 94 96 101 99 95 88 80 80 79 77 75 71 59 50 36 20 10 1 344 336 312 307 304 311 308 308 308 303 301 303 304 303 302 302 303 302 296 293 303 298 303 307 295 301 311 312 306 310 318 312 315 311 305 302
159 159 158 159 160 153 144 139 133 133 134 135 138 142 138 129 125 126 127 127 125 126 127 126 122 111 103 107 104 93 91 95 104 103 96 88 91 93 94 88 79 70 62 56 45 36 15 5 354 332 316 314 317 319 320 325 326 320 313 310 312 310 309 307 304 300 293 292 295 295 302 303 302 313 319 323 322 316 314 310 297 297 301 303 301
161 163 164 162 153 151 144 141 141 139 141 146 148 143 136 133 131 130 131 129 127 128 122 118 118 122 118 108 97 93 94 95 102 105 106 111 102 103 96 82 76 71 62 47 30 24 7 0 337 321 326 325 323 326 331 330 327 322 318 321 317 314 310 307 305 304 304 305 304 310 310 307 312 318 311 306 305 304 302 307 307 310 303 296 293
164 162 166 157 150 145 144 146 144 149 150 145 145 141 137 136 134 132 133 133 132 130 124 120 118 118 118 117 108 102 97 95 96 96 99 106 108 103 96 87 82 74 64 48 22 358 351 345 335 329 329 329 326 328 331 327 324 321 318 315 313 313 314 313 308 310 305 297 300 301 299 303 302 308 307 307 303 306 308 307 306 306 306 313 313
165 170 157 148 150 152 152 149 152 153 151 152 148 142 137 136 139 140 137 132 131 125 118 120 120 120 113 108 107 107 101 102 102 101 103 105 104 98 93 91 79 73 62 45 19 355 340 342 338 344 340 333 328 320 315 314 316 317 316 317 317 314 310 306 309 311 312 309 307 304 306 301 304 308 306 308 309 308 306 304 304 306 309 310 306
165 160 155 157 159 158 156 159 157 157 159 151 145 140 142 142 144 146 144 140 131 124 128 123 122 119 118 118 113 111 104 107 106 106 107 102 92 91 89 85 78 66 51 38 11 352 347 344 346 342 333 326 320 312 304 298 298 309 317 318 315 312 310 307 305 303 304 300 301 301 303 306 302 301 308 310 311 301 303 304 309 306 303 299 298
167 163 159 166 165 163 162 162 161 158 149 144 145 147 151 156 149 138 133 133 127 125 124 122 123 122 124 122 119 117 107 110 110 109 109 101 93 91 89 79 73 68 65 33 13 355 345 347 339 334 326 322 316 310 303 303 310 312 312 311 306 304 304 300 302 300 298 291 290 293 297 296 297 303 307 306 303 303 303 303 305 308 306 298 302
169 168 169 169 166 165 165 164 157 152 150 150 151 155 154 144 144 148 147 144 143 141 140 131 127 125 125 124 119 114 109 111 111 111 111 103 93 93 83 83 76 75 55 54 14 348 332 335 328 313 317 314 307 316 319 320 318 316 312 306 299 294 291 294 292 290 288 284 281 282 294 304 304 306 305 302 300 302 305 304 311 302 298 309 305
176 168 172 173 173 171 166 161 157 156 156 155 156 156 155 158 152 149 129 116 110 114 106 115 129 130 130 129 119 111 109 113 113 113 110 104 99 94 96 88 88 89 58 68 30 351 335 327 324 314 307 305 300 320 331 330 325 319 314 307 294 287 280 292 299 307 308 308 309 311 311 308 309 310 313 314 314 314 313 311 299 305 326 314 308
182 179 180 177 175 171 169 165 164 163 160 157 160 160 157 150 146 146 132 135 134 132 134 128 132 132 134 134 123 116 110 113 115 113 111 109 101 99 100 97 97 101 67 49 38 6 343 328 315 304 301 291 306 329 332 335 325 319 313 311 310 307 292 282 290 309 319 320 318 315 315 315 316 318 323 326 326 333 333 321 321 330 317 317 312
185 185 185 179 175 172 174 169 164 162 163 166 163 157 147 138 150 162 147 146 139 138 131 121 122 131 134 134 135 125 120 115 117 113 111 110 106 102 99 111 93 79 64 39 45 10 337 324 315 298 300 298 324 331 333 336 327 319 314 317 319 319 318 320 317 321 325 321 316 313 311 312 318 324 324 330 339 340 322 317 318 319 320 318 312
187 188 183 175 176 172 167 163 165 166 168 166 160 156 159 156 148 137 132 127 130 132 130 124 123 119 121 122 125 120 118 108 111 112 108 107 105 103 101 123 95 66 47 30 4 1 333 300 323 329 321 321 330 333 335 336 325 319 321 318 316 319 320 331 333 332 335 332 327 323 315 323 326 323 331 338 333 330 321 313 321 325 319 317 315
187 173 167 167 165 163 165 166 168 170 167 154 151 149 137 135 147 138 129 131 134 134 130 130 127 125 121 114 114 119 120 107 103 110 103 96 101 108 128 91 69 55 28 12 357 342 310 282 296 322 329 329 334 335 335 333 328 322 319 313 312 315 329 331 333 331 322 319 317 318 317 324 325 335 338 326 323 329 335 334 332 327 318 311 309
155 165 156 155 159 162 160 167 164 161 153 149 139 136 147 147 141 139 136 133 130 132 134 132 124 121 119 119 120 118 116 103 90 106 100 96 93 105 112 75 76 67 40 5 354 328 305 293 269 320 327 334 336 333 330 330 331 328 306 304 318 321 327 330 327 325 315 314 315 320 327 329 333 332 322 316 324 331 334 337 333 328 317 306 303
145 145 151 152 151 152 154 145 144 143 135 137 141 141 136 138 143 141 140 141 140 138 139 137 130 123 118 110 115 103 100 110 82 86 99 95 95 87 99 77 68 84 27 16 334 321 322 319 299 319 332 336 333 330 333 337 341 332 326 329 327 329 333 325 313 312 313 315 323 330 332 333 331 328 326 325 332 336 334 331 332 324 311 298 295
143 143 144 148 153 152 149 148 147 147 150 155 151 148 149 145 145 143 141 141 142 144 150 146 141 134 123 121 125 111 101 59 113 91 96 107 92 76 72 72 44 60 54 355 342 318 303 306 307 326 335 334 333 338 343 352 351 340 340 338 338 334 329 313 313 315 319 327 332 330 330 329 327 327 328 332 337 339 331 327 325 321 311 302 298
139 143 149 152 149 152 153 152 150 154 158 156 154 149 151 148 143 150 149 147 149 149 155 153 123 133 146 150 147 138 114 128 78 116 124 104 85 79 70 56 44 51 24 13 322 303 297 307 324 332 333 336 341 348 353 357 352 348 346 344 342 335 320 319 320 323 324 327 328 325 325 325 321 320 327 331 336 334 327 325 325 322 316 313 313
145 152 154 154 154 150 146 152 156 158 162 159 154 155 149 152 148 157 151 153 155 157 157 157 163 162 151 155 155 151 144 127 158 185 150 105 85 83 66 51 39 12 20 253 265 268 305 326 336 336 341 346 356 357 3 356 352 352 351 351 345 321 330 329 330 333 329 329 326 320 315 318 312 310 315 325 325 321 324 325 324 321 322 317 313
154 157 154 154 153 147 147 148 154 161 164 174 172 166 161 163 159 158 161 159 158 159 163 171 164 163 165 149 155 154 148 157 189 223 188 139 123 81 64 49 19 348 343 321 301 311 326 342 340 349 358 357 5 357 6 352 352 354 355 351 330 333 335 339 339 336 326 322 322 320 316 313 316 315 318 326 328 334 337 334 332 334 341 341 344
152 151 157 154 151 159 161 164 165 166 171 166 161 162 164 161 156 159 166 162 163 162 164 168 166 165 170 160 143 147 158 177 191 210 220 184 177 120 92 41 346 359 11 279 303 43 10 355 351 15 12 6 7 7 4 354 345 345 341 337 332 334 341 348 341 328 323 321 318 313 309 307 305 314 329 333 332 333 342 336 334 333 336 336 345
162 166 162 160 165 171 171 167 166 168 176 172 166 166 175 175 170 175 175 174 166 174 174 177 179 179 174 147 151 143 180 197 201 197 206 178 169 147 145 208 193 144 263 258 100 48 49 5 18 23 7 6 351 345 336 340 337 343 342 333 331 339 348 345 335 324 321 316 303 304 303 312 319 325 326 330 334 335 341 341 338 331 334 334 356
153 155 160 157 170 175 174 172 175 172 171 177 181 173 177 179 180 169 136 161 191 175 176 186 189 181 163 167 150 150 185 200 204 187 192 177 158 155 184 195 173 165 273 23 88 53 54 34 24 21 17 11 345 336 329 342 344 345 339 338 342 346 350 346 338 334 327 317 310 310 316 319 319 321 324 330 337 339 342 338 337 340 332 349 2
157 167 169 173 169 169 172 171 173 170 172 174 161 112 55 110 72 157 169 173 183 237 202 195 185 162 155 166 169 170 190 181 178 180 175 161 160 162 180 161 134 125 77 89 105 82 40 44 22 22 5 356 335 336 339 341 340 351 348 351 353 351 352 344 337 332 324 313 305 313 319 317 317 323 328 332 330 339 344 348 333 338 348 353 355
166 165 168 184 180 179 174 173 177 168 172 169 167 158 121 127 143 144 153 160 165 166 160 150 148 157 153 151 183 156 144 157 169 167 168 163 161 167 159 139 109 101 110 102 56 87 76 38 10 2 355 335 320 322 328 342 347 350 344 344 347 351 348 340 337 330 325 319 320 318 316 317 320 323 330 334 335 334 337 343 346 343 355 349 357
177 185 184 179 172 176 172 168 164 169 173 170 174 167 158 138 135 153 157 159 157 152 146 145 148 151 147 143 150 149 163 169 167 170 163 166 167 163 152 130 115 106 111 108 90 79 102 89 317 321 345 339 308 311 322 340 341 336 332 344 343 342 342 334 332 325 320 322 321 319 317 319 318 321 328 335 337 337 341 344 352 350 349 352 354
178 173 172 171 171 169 169 171 176 174 176 178 182 178 173 168 157 151 166 176 168 159 157 159 160 163 161 163 163 161 167 172 173 167 168 169 165 163 151 129 125 115 101 76 106 108 85 137 242 299 330 295 289 294 306 324 333 329 335 338 329 327 325 320 322 316 323 326 324 315 316 317 317 319 332 339 344 340 339 340 341 342 347 354 345
176 163 174 178 173 182 183 181 180 187 185 191 194 191 193 184 171 156 150 152 160 168 175 174 170 170 173 171 173 173 173 171 169 168 169 170 166 164 149 124 114 101 110 123 112 140 157 194 269 278 280 289 289 299 307 315 329 321 320 319 312 313 315 316 318 321 323 325 321 316 317 316 317 323 334 340 339 333 336 337 340 352 352 350 340
152 151 160 168 182 188 185 181 184 183 187 198 200 201 196 189 171 172 174 175 175 173 172 179 184 179 174 169 172 176 175 171 167 171 172 167 167 155 133 113 107 49 61 94 134 160 167 239 238 272 290 291 289 296 301 301 304 316 321 316 313 314 317 322 321 321 323 321 319 319 322 319 317 324 333 337 339 342 342 338 334 341 345 340 346
170 174 172 178 176 182 180 184 182 185 194 200 204 208 200 187 186 192 189 178 169 166 168 176 160 181 172 173 182 181 175 169 171 172 169 170 166 151 126 163 154 163 145 170 155 204 175 199 206 272 279 272 274 284 282 290 292 300 299 309 313 314 313 310 317 323 324 319 316 323 324 318 319 322 325 326 335 331 328 326 326 324 338 338 340
188 189 180 177 177 172 174 171 184 185 187 192 196 201 198 201 203 196 193 188 181 179 168 157 137 200 184 195 197 184 176 169 169 167 167 172 171 151 140 164 170 163 165 179 174 181 190 230 193 232 263 253 263 266 277 285 291 298 309 310 300 303 300 300 313 320 318 320 321 322 322 320 320 320 323 326 328 327 324 321 322 322 328 348 355
195 194 186 170 163 166 166 177 177 171 178 190 197 189 194 203 207 203 200 199 192 176 172 182 185 183 182 189 169 182 181 163 158 154 150 138 107 123 148 148 162 165 178 182 184 184 197 206 182 215 249 245 247 261 267 280 286 298 301 307 307 294 305 309 310 306 307 310 317 323 324 323 322 317 316 320 322 323 326 327 324 322 327 351 25
192 198 184 174 173 179 181 173 176 177 186 186 198 189 207 207 206 207 209 202 193 189 188 184 191 195 188 161 162 163 137 149 167 182 172 170 160 149 144 164 173 185 188 191 202 202 191 185 214 239 245 244 243 248 253 267 283 290 290 300 302 303 306 308 311 312 313 318 321 322 324 321 319 316 314 315 320 321 320 320 320 322 325 337 358
188 198 188 180 183 183 176 186 188 193 201 193 201 195 204 209 211 209 205 199 201 198 192 193 198 197 168 159 169 168 175 185 186 183 178 181 173 170 154 176 193 194 195 202 198 204 193 196 218 240 247 245 242 240 242 249 265 273 286 284 292 304 303 301 301 309 316 320 323 324 324 321 318 317 314 320 318 324 322 318 319 321 321 316 295
192 188 192 199 182 181 179 188 199 207 200 205 204 205 216 215 211 205 203 206 205 201 201 201 200 180 174 182 182 182 181 186 180 180 182 170 177 177 174 185 194 201 203 194 208 205 181 203 238 245 250 247 240 235 241 240 260 275 280 287 289 288 291 291 288 301 313 321 324 324 323 319 319 319 323 321 325 323 310 304 310 318 319 295 290
185 189 197 207 188 192 199 211 208 206 205 207 210 214 218 216 214 211 211 209 210 204 202 201 195 178 179 185 187 188 185 179 168 169 162 180 177 184 191 194 196 199 194 194 199 205 196 208 226 234 243 251 247 247 239 246 250 261 275 285 290 299 302 301 299 307 317 322 325 324 323 323 320 318 317 321 319 318 317 311 298 287 264 263 282
193 198 201 195 199 204 211 217 199 203 212 213 220 216 216 214 215 211 211 213 209 202 200 197 190 173 184 191 190 193 179 180 170 176 174 177 179 190 190 185 190 200 198 198 201 197 201 214 228 236 237 242 240 240 242 242 245 261 269 271 282 288 294 294 302 312 319 322 323 323 321 320 319 315 310 313 314 314 315 311 302 274 266 246 257
202 210 204 209 212 219 216 206 210 214 214 221 219 216 212 215 213 210 212 215 209 207 204 201 180 159 173 190 193 198 184 187 187 188 188 183 177 187 185 182 179 196 206 204 211 197 201 216 232 241 240 243 239 239 238 239 242 249 265 277 282 285 282 288 298 309 319 322 323 322 320 319 317 313 312 313 314 317 317 314 301 282 264 259 249
209 209 216 220 223 219 227 216 218 217 218 215 221 220 217 215 217 217 211 214 213 208 208 196 186 164 164 191 195 197 195 196 195 195 196 183 184 186 176 175 168 184 197 214 212 199 204 217 226 233 245 244 238 235 236 240 235 237 237 250 264 276 278 283 288 295 301 313 317 312 315 315 312 310 306 308 316 316 314 310 305 297 279 261 248
209 217 221 226 230 231 229 228 222 218 218 216 217 219 217 215 220 218 213 211 205 201 194 186 183 186 192 199 201 202 202 196 197 200 192 173 178 184 173 182 166 175 199 208 208 204 213 213 220 228 235 237 235 234 238 236 239 236 237 231 244 256 268 279 284 282 289 306 306 309 308 310 309 306 308 311 312 311 306 303 300 283 271 269 258
218 219 226 229 229 234 231 224 221 226 224 225 223 225 220 218 215 215 216 210 205 201 199 194 185 192 196 198 200 202 198 197 199 202 194 172 176 174 177 159 166 187 202 207 206 213 217 222 224 226 231 234 231 234 236 235 235 239 238 239 238 255 262 271 279 287 289 289 292 297 302 306 305 308 309 312 310 308 306 302 301 293 282 263 256
218 226 229 231 234 235 236 224 229 228 226 227 228 226 225 220 213 213 213 210 210 210 210 199 195 200 196 202 200 196 195 197 198 196 174 187 185 185 171 185 198 201 195 201 208 210 214 219 224 226 230 236 236 239 234 235 238 238 243 243 246 243 261 269 271 274 279 281 276 277 288 297 299 299 302 305 304 306 308 306 306 298 285 273 258
221 224 231 229 230 232 230 231 230 227 228 228 229 230 227 223 221 219 217 216 215 216 212 208 196 195 206 206 196 191 192 197 194 186 185 192 183 189 187 196 199 198 196 210 206 206 212 218 220 222 226 234 235 237 240 238 240 238 243 244 251 263 269 272 273 272 286 283 268 259 266 277 289 296 296 297 297 300 297 296 295 293 291 276 257
227 227 229 233 234 236 234 232 233 234 235 226 228 232 229 226 228 224 221 222 223 223 220 208 202 202 195 194 190 185 183 189 187 181 191 185 187 186 186 199 203 203 208 214 211 206 210 212 215 222 227 231 234 237 238 242 241 245 247 250 266 272 273 276 280 283 280 273 283 271 264 277 286 290 290 287 292 299 298 295 295 294 285 275 259
233 234 233 236 237 239 235 236 238 237 231 230 232 231 231 231 231 227 224 223 224 222 217 207 207 204 203 188 188 183 178 167 176 171 181 183 177 187 199 201 206 210 214 214 217 214 214 213 216 220 224 229 233 233 236 238 247 246 253 261 267 271 273 276 275 277 281 293 295 286 274 278 288 299 301 303 302 297 294 297 297 292 282 271 266